Wind_Speed
37 28 26 26 29 33 26 23 21 19 14 18 26 41 32 33 29 28 26 24 28 26 24 30 22 23 24 23 25 25 25 26 26 25 23 19 16 15 13 12 12 15 12
43 29 31 33 31 32 26 30 34 29 27 39 45 47 49 48 44 38 35 34 35 27 35 33 34 26 23 17 25 30 29 32 28 29 29 29 20 24 23 17 14 17 22
48 38 33 36 31 33 35 40 38 38 26 52 50 54 51 54 49 44 41 41 39 38 31 38 37 37 38 38 36 30 35 37 37 34 32 33 31 27 31 28 23 22 22
45 44 37 38 38 35 32 45 49 45 48 50 54 58 55 52 61 60 57 55 54 51 55 52 54 51 47 41 38 34 36 37 44 43 40 40 37 37 35 36 31 28 28
48 46 43 45 46 43 42 38 43 46 52 61 60 56 57 60 58 58 59 64 65 65 63 64 71 66 61 59 52 57 52 48 43 48 51 46 48 45 46 41 42 38 36
46 50 55 55 54 47 51 49 50 45 51 52 51 53 58 62 64 67 69 72 74 77 78 76 79 69 63 67 72 67 57 60 43 44 58 56 55 54 50 53 50 47 45
45 53 56 58 58 63 62 57 62 62 68 69 70 70 73 79 78 82 86 86 88 93 87 92 92 83 83 84 80 79 77 73 67 55 54 62 61 62 60 58 61 56 54
53 51 58 61 65 69 69 70 67 67 71 74 79 83 84 89 91 86 90 90 93 95 95 96 96 98 98 101 97 86 88 72 76 58 59 64 61 64 67 65 64 63 61
59 57 59 69 70 75 77 79 79 82 85 86 81 82 83 87 89 96 104 104 101 101 103 107 105 106 106 107 99 90 89 80 76 74 63 64 73 82 73 72 71 68 66
51 54 57 61 74 77 80 83 82 83 87 90 97 101 94 97 102 107 107 108 113 115 109 108 109 109 111 108 112 107 104 97 86 70 68 73 74 82 83 78 79 75 70
51 56 60 63 66 67 71 76 83 89 93 97 99 106 108 110 111 116 120 116 114 118 116 120 116 125 119 111 108 106 104 98 95 86 73 74 80 84 84 83 86 82 77
55 50 54 58 61 66 70 78 84 87 89 92 98 101 109 113 112 112 115 118 116 114 108 109 111 119 113 112 100 97 94 95 93 89 87 78 82 89 85 83 85 87 85
50 49 50 50 54 61 61 66 69 70 78 78 85 90 86 93 99 104 109 104 103 108 109 111 112 113 114 114 115 106 95 89 90 85 85 86 83 87 86 85 83 85 89
48 49 50 52 54 56 62 66 69 72 75 76 79 81 84 90 94 98 103 104 102 106 113 116 113 113 115 115 113 106 98 86 76 71 79 87 91 86 84 86 83 83 85
53 55 56 58 61 63 65 68 71 75 77 80 82 83 84 90 95 100 103 104 105 108 111 111 109 109 107 102 97 90 80 72 63 63 66 77 89 91 85 86 86 83 81
57 60 62 63 64 66 67 69 71 75 77 78 80 80 83 87 91 96 99 100 101 104 104 103 99 94 88 82 79 74 69 63 59 55 60 71 79 90 90 87 86 84 82
62 63 63 63 64 66 68 71 74 76 78 79 83 84 85 88 92 94 94 94 94 91 89 86 81 75 72 68 65 62 59 57 53 51 55 63 72 82 90 90 86 86 83
62 62 63 63 63 65 67 68 69 70 74 80 86 90 90 89 88 87 85 82 80 74 68 67 64 61 61 58 56 55 53 51 48 47 50 55 64 76 87 91 89 86 87
58 57 59 62 64 66 67 70 74 77 81 85 87 84 80 78 79 75 67 60 59 58 55 54 54 55 55 53 49 47 46 46 44 42 44 49 58 69 80 87 90 87 85
56 58 60 63 66 69 72 76 80 82 80 75 73 72 67 63 58 57 53 49 47 48 47 46 46 46 48 47 42 41 42 43 40 37 39 44 52 61 70 78 85 87 86
58 61 63 67 70 74 76 76 76 74 72 68 63 56 48 47 46 44 44 45 44 45 44 42 42 42 43 43 37 37 40 39 36 34 36 40 45 53 60 68 77 84 84
63 65 67 67 66 68 71 72 72 70 60 51 45 43 39 38 40 41 41 42 42 40 39 38 39 40 39 38 34 35 37 35 34 33 33 35 39 45 50 57 66 73 78
58 58 59 62 64 68 71 73 64 49 41 40 36 35 35 37 37 36 35 34 35 36 35 34 34 32 30 30 30 33 33 30 32 32 33 33 36 38 41 47 53 58 62
53 56 57 61 67 72 70 54 45 38 36 31 28 31 33 30 28 27 29 30 30 30 29 28 26 24 23 24 26 28 28 29 31 32 32 32 31 31 31 33 35 37 40
56 59 62 66 69 62 49 43 36 33 27 24 27 28 26 25 25 27 27 24 23 24 24 22 20 18 16 18 21 23 25 28 29 32 32 32 30 28 25 24 21 22 29
60 62 65 66 55 43 38 32 29 23 20 23 26 25 22 20 19 21 20 19 17 17 16 15 13 11 10 13 16 18 19 24 27 30 30 29 28 26 25 24 22 21 21
Wind_Direction
263 257 269 260 269 259 259 261 237 261 277 276 265 270 269 267 255 259 261 272 304 309 317 330 332 319 265 265 279 283 284 293 293 282 275 267 261 255 256 266 289 291 295
266 259 264 266 258 256 257 247 254 260 258 265 256 259 271 280 260 266 268 290 291 298 305 316 320 324 320 313 274 269 277 276 275 276 277 274 259 255 257 248 255 275 282
259 260 265 273 270 257 253 253 251 246 237 249 245 253 262 278 264 267 278 285 285 294 303 309 318 314 311 301 316 316 263 264 266 259 260 265 266 260 261 254 252 247 262
259 262 268 260 269 266 258 258 247 239 221 241 245 253 258 250 258 266 270 282 285 294 292 300 294 304 302 303 303 314 313 271 267 263 264 259 255 259 261 263 258 246 237
264 265 250 261 262 260 261 272 229 228 236 242 246 250 252 254 253 258 261 273 281 286 287 290 300 297 297 302 300 301 307 305 290 272 260 260 258 260 263 259 261 252 243
258 259 259 262 261 266 252 248 231 225 236 242 245 247 253 253 262 270 277 275 283 280 281 287 292 299 302 299 296 302 297 296 286 287 257 251 251 250 258 256 254 254 242
262 256 258 257 258 257 257 256 253 253 249 250 255 256 258 265 269 272 275 277 279 282 286 286 292 294 297 295 297 294 296 300 299 272 277 257 255 251 248 250 251 249 246
264 258 253 251 254 254 255 256 253 253 256 258 259 261 262 265 269 275 276 283 284 287 291 289 290 292 290 292 293 297 296 291 293 275 277 272 262 252 246 244 247 246 245
254 255 253 256 254 258 260 258 259 260 261 270 273 276 276 280 285 287 286 286 288 291 292 291 289 289 290 292 295 291 291 289 286 278 274 257 255 245 240 240 239 239 240
273 265 258 255 248 252 255 263 263 264 267 269 271 274 279 279 280 280 280 280 284 283 285 285 283 287 288 288 288 290 288 289 285 271 263 246 246 245 245 242 238 235 236
277 275 271 271 269 266 262 261 264 264 265 266 268 270 271 276 276 279 281 283 280 282 283 284 283 284 287 285 282 282 283 280 282 278 267 251 245 242 240 242 239 234 235
283 278 271 268 269 271 273 270 269 269 273 271 271 271 273 277 279 281 281 281 281 284 284 284 283 284 284 285 281 278 276 277 275 270 263 256 245 242 240 240 238 235 233
278 279 279 277 276 276 277 275 277 276 275 277 275 277 281 283 284 282 283 282 282 283 285 285 285 286 286 286 286 284 281 278 275 267 259 252 244 237 240 240 237 235 232
281 281 282 283 283 282 281 282 283 282 282 282 281 282 283 283 285 286 285 285 285 284 283 283 285 285 286 286 285 286 284 280 274 265 254 246 241 238 237 239 238 233 233
288 288 288 287 286 285 284 283 281 280 279 278 278 278 279 279 279 279 280 281 282 282 282 284 285 285 285 284 284 282 280 277 271 260 251 244 237 235 235 236 236 233 230
285 286 287 287 287 287 285 284 282 281 281 280 279 279 279 279 279 280 281 283 284 283 284 284 283 283 282 280 279 279 277 272 268 258 250 243 237 232 232 234 233 234 230
285 285 286 286 286 283 282 281 282 283 282 282 283 282 282 281 281 281 281 281 281 281 282 282 281 279 278 279 278 276 273 268 264 257 248 242 236 231 228 230 232 232 232
287 288 287 286 285 284 284 284 284 284 286 289 291 290 290 290 287 286 286 286 285 283 281 279 278 277 277 277 275 272 267 263 259 254 245 240 236 231 228 227 229 231 231
288 288 287 287 288 288 289 290 291 293 293 292 292 294 293 292 291 290 290 288 285 283 279 277 276 276 275 272 270 268 262 259 255 249 243 238 234 231 229 227 228 229 231
290 290 290 290 291 293 294 293 292 293 295 295 295 293 292 291 291 291 290 288 284 282 282 279 276 273 271 270 267 262 257 254 249 241 238 234 230 227 227 228 228 229 230
289 289 291 292 293 293 295 296 297 299 301 299 295 294 292 292 293 293 291 289 285 282 279 277 274 270 267 265 260 253 250 247 241 234 232 230 227 225 225 227 229 231 232
293 294 296 298 299 299 300 301 303 304 303 299 297 297 297 298 298 297 296 295 292 288 284 279 274 271 267 264 255 247 246 242 230 227 227 222 220 221 224 228 232 234 234
298 299 300 300 301 303 304 306 306 306 303 301 302 304 306 305 305 307 305 302 298 295 291 286 281 277 268 261 249 242 240 232 222 219 219 216 216 219 226 235 240 241 239
304 302 302 304 305 306 307 306 308 307 303 304 308 310 308 306 310 312 312 310 307 306 299 294 289 281 270 257 244 239 232 219 212 211 212 210 214 223 233 241 247 244 239
307 308 305 304 306 308 307 308 307 301 302 307 312 308 308 313 315 309 312 314 317 315 307 301 291 282 265 250 241 233 224 210 204 203 204 209 214 223 231 238 242 238 231
307 307 308 309 310 309 308 306 302 301 308 318 317 312 323 323 322 327 327 325 328 329 319 310 298 282 258 242 237 228 216 206 200 203 209 218 223 228 234 240 242 240 233
Height
10915 10920 10920 10920 10921 10919 10917 10915 10917 10920 10914 10907 10911 10910 10917 10919 10917 10916 10916 10918 10919 10920 10922 10923 10923 10924 10921 10921 10922 10921 10922 10925 10928 10928 10929 10929 10929 10932 10935 10935 10933 10935 10936
10905 10910 10909 10910 10909 10907 10906 10907 10904 10913 10916 10928 10905 10901 10908 10910 10911 10910 10909 10909 10910 10911 10912 10911 10915 10914 10917 10915 10914 10915 10915 10916 10917 10920 10922 10924 10925 10925 10927 10930 10930 10930 10932
10892 10895 10897 10897 10899 10899 10895 10893 10896 10901 10910 10902 10897 10894 10897 10900 10901 10901 10901 10900 10900 10900 10900 10902 10902 10905 10906 10907 10906 10906 10905 10905 10907 10909 10912 10915 10917 10918 10919 10922 10923 10925 10927
10879 10881 10886 10887 10887 10888 10885 10881 10880 10884 10887 10886 10885 10884 10886 10887 10888 10888 10890 10889 10890 10887 10886 10887 10891 10894 10894 10896 10895 10894 10897 10896 10897 10899 10901 10902 10904 10909 10911 10912 10916 10917 10918
10868 10869 10871 10875 10877 10875 10875 10872 10866 10867 10866 10867 10867 10867 10870 10871 10873 10875 10876 10875 10873 10871 10872 10871 10871 10875 10877 10880 10881 10879 10880 10883 10884 10886 10886 10888 10891 10893 10895 10903 10903 10907 10908
10855 10857 10857 10860 10863 10863 10864 10865 10865 10857 10858 10857 10857 10858 10858 10859 10858 10858 10859 10859 10857 10856 10854 10853 10856 10855 10855 10857 10858 10862 10864 10862 10863 10867 10868 10871 10871 10871 10877 10882 10889 10892 10894
10841 10843 10843 10844 10845 10846 10849 10850 10849 10848 10847 10846 10846 10845 10843 10840 10839 10839 10840 10840 10836 10832 10832 10831 10832 10833 10835 10838 10840 10841 10844 10847 10846 10847 10849 10848 10853 10860 10862 10864 10867 10876 10878
10824 10827 10829 10828 10827 10827 10828 10829 10831 10831 10831 10829 10827 10824 10821 10817 10816 10815 10813 10812 10811 10809 10807 10808 10808 10806 10806 10808 10814 10814 10815 10814 10816 10823 10827 10825 10829 10832 10843 10844 10848 10856 10862
10808 10808 10809 10809 10808 10808 10809 10809 10809 10808 10809 10805 10803 10801 10800 10793 10786 10785 10787 10786 10785 10784 10779 10777 10773 10772 10774 10780 10783 10787 10789 10787 10788 10792 10800 10799 10800 10802 10810 10823 10827 10833 10840
10783 10785 10787 10789 10790 10790 10790 10789 10788 10787 10785 10782 10779 10775 10773 10774 10770 10767 10765 10765 10763 10758 10754 10751 10749 10748 10749 10746 10747 10751 10755 10754 10758 10761 10767 10773 10771 10777 10782 10794 10801 10811 10818
10773 10769 10767 10766 10768 10771 10771 10770 10769 10768 10765 10761 10757 10752 10751 10747 10743 10735 10734 10732 10728 10728 10722 10718 10714 10717 10717 10720 10715 10719 10724 10718 10722 10730 10734 10740 10745 10744 10752 10764 10774 10784 10795
10756 10752 10751 10751 10749 10748 10743 10745 10744 10739 10736 10735 10732 10726 10722 10718 10715 10708 10702 10696 10693 10693 10686 10681 10677 10675 10673 10678 10682 10683 10681 10687 10688 10686 10691 10702 10711 10715 10720 10733 10745 10758 10769
10738 10735 10732 10728 10724 10723 10720 10721 10717 10710 10712 10707 10703 10701 10691 10685 10680 10675 10674 10665 10658 10655 10649 10645 10641 10637 10629 10627 10627 10637 10644 10641 10650 10648 10650 10659 10673 10685 10692 10702 10716 10728 10741
10723 10721 10717 10714 10709 10704 10701 10697 10692 10691 10688 10684 10678 10671 10664 10661 10653 10647 10640 10634 10624 10619 10617 10613 10608 10600 10594 10590 10590 10590 10595 10600 10606 10610 10611 10621 10635 10652 10663 10673 10686 10702 10713
10703 10700 10697 10694 10692 10688 10684 10681 10678 10674 10670 10664 10657 10651 10644 10640 10632 10626 10619 10609 10597 10588 10582 10580 10573 10566 10562 10560 10556 10556 10559 10563 10573 10576 10579 10586 10601 10617 10632 10644 10659 10674 10690
10686 10682 10679 10676 10671 10666 10663 10658 10655 10649 10642 10638 10633 10627 10622 10617 10609 10599 10587 10577 10566 10556 10552 10546 10542 10539 10536 10533 10529 10527 10531 10536 10540 10547 10552 10559 10570 10586 10602 10617 10633 10648 10662
10670 10666 10662 10658 10653 10648 10643 10638 10633 10623 10617 10608 10599 10596 10593 10588 10576 10565 10555 10549 10538 10532 10526 10517 10514 10509 10506 10506 10503 10503 10507 10510 10515 10523 10529 10535 10542 10556 10573 10590 10606 10622 10635
10650 10646 10641 10636 10632 10626 10621 10616 10610 10604 10596 10585 10573 10564 10557 10548 10538 10530 10522 10515 10505 10499 10497 10491 10487 10484 10481 10483 10483 10482 10484 10486 10494 10501 10507 10514 10520 10530 10546 10564 10581 10595 10609
10633 10627 10621 10616 10611 10605 10599 10592 10585 10578 10569 10561 10549 10537 10526 10517 10505 10498 10493 10489 10481 10475 10475 10472 10468 10466 10465 10465 10466 10465 10466 10469 10476 10482 10489 10496 10502 10512 10525 10542 10557 10573 10585
10617 10612 10605 10598 10592 10586 10579 10572 10563 10555 10546 10535 10523 10512 10505 10495 10487 10480 10475 10471 10466 10461 10457 10455 10453 10451 10449 10448 10450 10451 10451 10455 10461 10468 10474 10480 10487 10496 10508 10522 10537 10550 10563
10601 10595 10590 10584 10576 10568 10557 10547 10538 10528 10518 10509 10498 10491 10486 10479 10471 10465 10459 10453 10449 10445 10442 10439 10436 10434 10432 10432 10436 10437 10438 10442 10448 10454 10460 10468 10476 10485 10495 10507 10518 10528 10539
10583 10576 10569 10561 10551 10541 10531 10522 10513 10503 10494 10486 10479 10473 10469 10463 10457 10451 10444 10437 10432 10428 10425 10422 10419 10417 10417 10419 10422 10423 10425 10431 10436 10442 10451 10459 10466 10475 10484 10493 10500 10508 10518
10564 10557 10549 10541 10532 10522 10511 10501 10491 10483 10476 10471 10466 10460 10456 10451 10445 10439 10431 10424 10419 10414 10410 10407 10405 10404 10404 10405 10406 10409 10413 10420 10427 10434 10442 10450 10458 10466 10474 10481 10487 10494 10501
10550 10542 10534 10525 10515 10504 10492 10482 10476 10470 10465 10461 10458 10453 10447 10441 10435 10429 10423 10418 10412 10405 10400 10397 10395 10394 10395 10394 10395 10399 10405 10411 10417 10425 10434 10442 10451 10458 10466 10471 10475 10478 10484
10535 10526 10517 10507 10496 10486 10476 10470 10465 10461 10457 10454 10449 10444 10439 10434 10429 10423 10418 10412 10406 10398 10393 10390 10388 10387 10386 10387 10389 10394 10400 10405 10411 10419 10427 10436 10444 10452 10458 10462 10465 10469 10473
10517 10508 10498 10489 10479 10472 10465 10461 10456 10453 10451 10447 10442 10438 10433 10427 10423 10418 10414 10408 10401 10394 10390 10386 10383 10382 10382 10383 10387 10392 10396 10401 10407 10415 10423 10431 10438 10444 10449 10453 10457 10462 10467